Weather History for PHMK - March, 2013

Change the Weather History Date:

Saturday, March 2, 2013

  Actual Average (PHNY) Record (PHNY)
Temperature  
Mean Temperature 70 °F -  
Max Temperature 75 °F 75 °F - (-1)
Min Temperature 66 °F 59 °F - (-1)
Cooling Degree Days 6    
Growing Degree Days 20 (Base 50)    
Moisture  
Dew Point 56 °F    
Average Humidity 59    
Maximum Humidity 76    
Minimum Humidity 46    
Precipitation  
Precipitation 0.00 in - - ()
Sea Level Pressure  
Sea Level Pressure 30.16 in    
Wind  
Wind Speed 18 mph (NE)    
Max Wind Speed 23 mph    
Max Gust Speed 34 mph    
Visibility 10 miles    
Events Rain    
Averages and records for this station are not official NWS values.
T = Trace of Precipitation, MM = Missing Value Source: NWS Daily Summary

Daily Weather History Graph

Daily Weather History Graph

Search for Another Location

Airport or City:

Trip Planner

Search our weather history database for the weather conditions in past years. The results will help you decide how hot, cold, wet, or windy it might be!

Date:

Astronomy

Mar. 02, 2013 Rise Set
Actual Time 6:47 AM HST 6:33 PM HST
Civil Twilight 6:25 AM HST 6:55 PM HST
Nautical Twilight 5:59 AM HST 7:21 PM HST
Astronomical Twilight 5:33 AM HST 7:47 PM HST
Moon 11:36 PM HST (3/2) 10:09 AM HST (3/2)
Length of Visible Light 12h 30m
Length of Day
11h 45m
Waning Gibbous, 72% of the Moon is Illuminated
Mar 2
Waning Gibbous
Mar 4
Last Quarter
Mar 11
New
Mar 19
First Quarter
Mar 26
Full

Hourly Weather History & Observations

Time (HST) Temp. Dew Point Humidity Pressure Visibility Wind Dir Wind Speed Gust Speed Precip Events Conditions
12:54 AM 68.0 °F 55.9 °F 65% 30.17 in 10.0 mi ENE 21.9 mph 31.1 mph 0.00 in   Mostly Cloudy
1:54 AM 68.0 °F 55.0 °F 63% 30.16 in 10.0 mi ENE 13.8 mph 23.0 mph 0.00 in   Scattered Clouds
2:54 AM 68.0 °F 53.1 °F 59% 30.14 in 10.0 mi NE 17.3 mph 25.3 mph N/A   Clear
3:54 AM 68.0 °F 52.0 °F 56% 30.13 in 10.0 mi ENE 17.3 mph 26.5 mph N/A   Scattered Clouds
4:54 AM 68.0 °F 52.0 °F 56% 30.14 in 10.0 mi ENE 18.4 mph 28.8 mph N/A   Scattered Clouds
5:54 AM 69.1 °F 55.9 °F 63% 30.14 in 10.0 mi ENE 18.4 mph 28.8 mph N/A   Overcast
6:54 AM 66.9 °F 54.0 °F 63% 30.17 in 10.0 mi ENE 11.5 mph - N/A   Partly Cloudy
7:54 AM 70.0 °F 48.0 °F 46% 30.18 in 10.0 mi ENE 15.0 mph 20.7 mph N/A   Clear
8:54 AM 70.0 °F 55.0 °F 59% 30.19 in 10.0 mi ENE 17.3 mph 26.5 mph N/A   Partly Cloudy
9:54 AM 73.0 °F 55.9 °F 55% 30.21 in 10.0 mi NE 20.7 mph 32.2 mph N/A   Scattered Clouds
10:54 AM 75.0 °F 55.9 °F 51% 30.19 in 10.0 mi NE 21.9 mph 31.1 mph N/A   Scattered Clouds
11:54 AM 75.0 °F 55.9 °F 51% 30.16 in 10.0 mi NE 23.0 mph 32.2 mph N/A   Clear
12:54 PM 75.0 °F 54.0 °F 48% 30.13 in 10.0 mi NE 18.4 mph 33.4 mph N/A   Clear
1:54 PM 75.0 °F 54.0 °F 48% 30.10 in 10.0 mi NE 21.9 mph 34.5 mph N/A   Clear
2:54 PM 75.0 °F 55.9 °F 51% 30.09 in 10.0 mi NE 21.9 mph 31.1 mph N/A   Clear
3:54 PM 73.9 °F 55.0 °F 52% 30.09 in 10.0 mi NE 18.4 mph 28.8 mph N/A   Clear
4:54 PM 73.0 °F 57.9 °F 59% 30.11 in 10.0 mi NE 17.3 mph 28.8 mph N/A   Clear
5:54 PM 71.1 °F 57.9 °F 63% 30.13 in 10.0 mi NE 16.1 mph 26.5 mph N/A   Clear
6:54 PM 69.1 °F 57.9 °F 68% 30.16 in 10.0 mi NE 15.0 mph 26.5 mph N/A   Scattered Clouds
7:54 PM 70.0 °F 57.9 °F 65% 30.18 in 10.0 mi NE 13.8 mph 24.2 mph N/A   Mostly Cloudy
8:54 PM 70.0 °F 57.9 °F 65% 30.21 in 10.0 mi NE 10.4 mph 25.3 mph N/A   Overcast
9:54 PM 68.0 °F 60.1 °F 76% 30.22 in 10.0 mi NE 16.1 mph 25.3 mph 0.00 in Rain Light Rain
10:03 PM 69.8 °F 60.8 °F 73% 30.21 in 10.0 mi NE 10.4 mph 25.3 mph 0.00 in   Overcast
10:54 PM 69.1 °F 57.0 °F 65% 30.22 in 10.0 mi NE 9.2 mph 24.2 mph 0.00 in   Scattered Clouds
11:54 PM 68.0 °F 55.9 °F 65% 30.22 in 10.0 mi NE 17.3 mph 24.2 mph N/A   Partly Cloudy